Regional Weather Roundup
Issued by NWS

Home | Current Version | Previous Version | Text Only | Print | Product List | Glossary On
Versions: 1 2 3 4 5 6 7 8 9 10 11 12 13 14 15 16 17 18 19 20 21 22 23 24 25 26 27 28 29 30 31 32 33 34 35 36 37 38 39 40 41 42 43 44 45 46 47 48 49 50
000
ASUS44 KOUN 260810
RWROK

WEATHER ROUNDUP FOR OKLAHOMA
NATIONAL WEATHER SERVICE NORMAN OK
300 AM CDT SUN APR 26 2015

NOTE: "FAIR" INDICATES FEW OR NO CLOUDS BELOW 12,000 FEET WITH NO
      SIGNIFICANT WEATHER AND/OR OBSTRUCTIONS TO VISIBILITY.

OKZ001>007-009>012-014-015-017-260900-
NORTHWEST OKLAHOMA AND THE PANHANDLE

CITY           SKY/WX    TMP DP  RH WIND       PRES   REMARKS
GAGE           PTCLDY    58  53  84 E14G21    29.69F
GUYMON         PTCLDY    57  52  83 E13       29.68F
ENID/WOODRING  PTCLDY    55  54  94 NE15      29.72R
$$

OKZ016-021>023-033>039-044-045-260900-
SOUTHWEST OKLAHOMA

CITY           SKY/WX    TMP DP  RH WIND       PRES   REMARKS
LAWTON/REGL    CLEAR     53  50  89 CALM      29.64S
LAWTON/FT SILL CLEAR     60  53  75 S2        29.62F
FREDERICK      CLEAR     57  50  77 SW6       29.60F
CLINTON        CLEAR     57  50  77 E9        29.66S
HOBART         CLEAR     54  48  80 S12       29.64S
ALTUS AFB      CLEAR     52  47  86 E5        29.62F
$$

OKZ018>020-024>031-260900-
CENTRAL OKLAHOMA

CITY           SKY/WX    TMP DP  RH WIND       PRES   REMARKS
OKLAHOMA CITY  PTCLDY    63  53  70 E15       29.67F
OKC/WILEY POST CLEAR     62  54  74 E12       29.68S
OKC/TINKER AFB CLEAR     60  54  80 E10       29.67F
STILLWATER     MOCLDY    57  54  89 NE10      29.72S
GUTHRIE        CLEAR     60  54  80 E16G22    29.69S
$$

OKZ008-013-054>072-260900-
NORTHEAST OKLAHOMA

CITY           SKY/WX    TMP DP  RH WIND       PRES   REMARKS
TULSA          PTCLDY    58  54  86 N7        29.72F
TULSA/JONES    CLEAR     59  55  87 NE12      29.73S
PONCA CITY     CLOUDY    56  52  86 NE15      29.75R
BARTLESVILLE   CLOUDY    57  52  83 NE8       29.77S
MUSKOGEE       CLEAR     59  55  87 N5        29.72S
$$

OKZ032-040>043-046>053-073>077-260900-
SOUTH CENTRAL/SOUTHEAST OKLAHOMA

CITY           SKY/WX    TMP DP  RH WIND       PRES   REMARKS
ARDMORE/DWNTWN CLEAR     55  54  94 CALM      29.64F
MCALESTER      PTCLDY    63  55  75 NE3       29.68F
$$



USA.gov is the U.S. government's official web portal to all federal, state and local government web resources and services.